Time,TemperatureF,DewpointF,PressureIn,WindDirection,WindDirectionDegrees,WindSpeedMPH,WindSpeedGustMPH,Humidity,HourlyPrecipIn,Conditions,Clouds,dailyrainin,SoftwareType,DateUTC
2013-02-14 00:01:00,24.0,7.0,-100.00,WSW,250,8.0,11.0,47,-99.99,,,-99.99,,2013-02-14 07:01:00,
2013-02-14 00:11:00,22.0,6.0,-100.00,WSW,245,9.0,14.0,48,-99.99,,,-99.99,,2013-02-14 07:11:00,
2013-02-14 00:21:00,21.0,5.0,-100.00,SW,230,14.0,16.0,49,-99.99,,,-99.99,,2013-02-14 07:21:00,
2013-02-14 00:31:00,20.0,5.0,-100.00,SW,225,14.0,15.0,51,-99.99,,,-99.99,,2013-02-14 07:31:00,
2013-02-14 00:41:00,20.0,5.0,-100.00,SW,225,14.0,15.0,51,-99.99,,,-99.99,,2013-02-14 07:41:00,
2013-02-14 00:51:00,20.0,6.0,-100.00,SW,230,12.0,16.0,52,-99.99,,,-99.99,,2013-02-14 07:51:00,
2013-02-14 01:01:00,20.0,6.0,-100.00,SW,225,11.0,12.0,52,-99.99,,,-99.99,,2013-02-14 08:01:00,
2013-02-14 01:11:00,20.0,6.0,-100.00,SW,230,9.0,12.0,53,-99.99,,,-99.99,,2013-02-14 08:11:00,
2013-02-14 01:21:00,20.0,6.0,-100.00,SW,220,10.0,12.0,53,-99.99,,,-99.99,,2013-02-14 08:21:00,
2013-02-14 01:31:00,20.0,5.0,-100.00,SW,225,10.0,12.0,53,-99.99,,,-99.99,,2013-02-14 08:31:00,
2013-02-14 01:43:00,20.0,5.0,-100.00,SW,230,10.0,11.0,51,-99.99,,,-99.99,,2013-02-14 08:43:00,
2013-02-14 01:52:00,20.0,5.0,-100.00,WSW,250,7.0,9.0,51,-99.99,,,-99.99,,2013-02-14 08:52:00,
2013-02-14 02:01:00,21.0,6.0,-100.00,WNW,290,1.0,7.0,51,-99.99,,,-99.99,,2013-02-14 09:01:00,
2013-02-14 02:11:00,24.0,7.0,-100.00,West,270,2.0,4.0,49,-99.99,,,-99.99,,2013-02-14 09:11:00,
2013-02-14 02:21:00,24.0,7.0,-100.00,WNW,290,1.0,3.0,48,-99.99,,,-99.99,,2013-02-14 09:21:00,
2013-02-14 02:31:00,24.0,8.0,-100.00,WNW,300,2.0,3.0,47,-99.99,,,-99.99,,2013-02-14 09:31:00,
2013-02-14 02:41:00,25.0,8.0,-100.00,WNW,285,0.0,2.0,47,-99.99,,,-99.99,,2013-02-14 09:41:00,
2013-02-14 02:51:00,25.0,8.0,-100.00,NW,310,2.0,2.0,47,-99.99,,,-99.99,,2013-02-14 09:51:00,
2013-02-14 03:01:00,25.0,8.0,-100.00,NNW,335,3.0,4.0,47,-99.99,,,-99.99,,2013-02-14 10:01:00,
2013-02-14 03:11:00,22.0,6.0,-100.00,East,100,4.0,6.0,47,-99.99,,,-99.99,,2013-02-14 10:11:00,
2013-02-14 03:21:00,18.0,3.0,-100.00,East,100,6.0,6.0,52,-99.99,,,-99.99,,2013-02-14 10:21:00,
2013-02-14 03:31:00,20.0,6.0,-100.00,ENE,65,10.0,11.0,55,-99.99,,,-99.99,,2013-02-14 10:31:00,
2013-02-14 03:41:00,19.0,8.0,-100.00,ENE,60,9.0,10.0,60,-99.99,,,-99.99,,2013-02-14 10:41:00,
2013-02-14 03:52:00,19.0,9.0,-100.00,East,85,11.0,12.0,63,-99.99,,,-99.99,,2013-02-14 10:52:00,
2013-02-14 04:01:00,16.0,7.0,-100.00,ESE,115,7.0,10.0,64,-99.99,,,-99.99,,2013-02-14 11:01:00,
2013-02-14 04:11:00,14.0,4.0,-100.00,SE,140,9.0,9.0,64,-99.99,,,-99.99,,2013-02-14 11:11:00,
2013-02-14 04:21:00,13.0,3.0,-100.00,SE,135,9.0,10.0,65,-99.99,,,-99.99,,2013-02-14 11:21:00,
2013-02-14 04:31:00,13.0,4.0,-100.00,SE,125,9.0,10.0,65,-99.99,,,-99.99,,2013-02-14 11:31:00,
2013-02-14 04:41:00,12.0,3.0,-100.00,ESE,120,7.0,9.0,66,-99.99,,,-99.99,,2013-02-14 11:41:00,
2013-02-14 04:51:00,12.0,4.0,-100.00,ESE,110,9.0,9.0,70,-99.99,,,-99.99,,2013-02-14 11:51:00,
2013-02-14 05:01:00,15.0,7.0,-100.00,ESE,110,13.0,13.0,71,-99.99,,,-99.99,,2013-02-14 12:01:00,
2013-02-14 05:11:00,15.0,8.0,-100.00,ESE,110,12.0,13.0,71,-99.99,,,-99.99,,2013-02-14 12:11:00,
2013-02-14 05:21:00,16.0,8.0,-100.00,ESE,110,11.0,11.0,72,-99.99,,,-99.99,,2013-02-14 12:21:00,
2013-02-14 05:31:00,17.0,10.0,-100.00,ESE,115,10.0,11.0,73,-99.99,,,-99.99,,2013-02-14 12:31:00,
2013-02-14 05:41:00,17.0,10.0,-100.00,ESE,120,9.0,10.0,73,-99.99,,,-99.99,,2013-02-14 12:41:00,
2013-02-14 05:53:00,17.0,10.0,-100.00,ESE,115,9.0,9.0,75,-99.99,,,-99.99,,2013-02-14 12:53:00,
2013-02-14 06:01:00,17.0,10.0,-100.00,ESE,115,9.0,9.0,75,-99.99,,,-99.99,,2013-02-14 13:01:00,
2013-02-14 06:11:00,17.0,12.0,-100.00,East,100,9.0,9.0,77,-99.99,,,-99.99,,2013-02-14 13:11:00,
2013-02-14 06:21:00,18.0,12.0,-100.00,ESE,115,9.0,9.0,78,-99.99,,,-99.99,,2013-02-14 13:21:00,
2013-02-14 06:31:00,18.0,12.0,-100.00,ESE,105,7.0,9.0,77,-99.99,,,-99.99,,2013-02-14 13:31:00,
2013-02-14 06:41:00,19.0,14.0,-100.00,SE,125,6.0,11.0,79,-99.99,,,-99.99,,2013-02-14 13:41:00,
2013-02-14 06:51:00,18.0,12.0,-100.00,SE,135,6.0,6.0,77,-99.99,,,-99.99,,2013-02-14 13:51:00,
2013-02-14 07:01:00,18.0,13.0,-100.00,SE,125,5.0,6.0,77,-99.99,,,-99.99,,2013-02-14 14:01:00,
2013-02-14 07:11:00,18.0,12.0,-100.00,SSE,160,6.0,8.0,77,-99.99,,,-99.99,,2013-02-14 14:11:00,
2013-02-14 07:21:00,18.0,12.0,-100.00,SE,145,4.0,6.0,77,-99.99,,,-99.99,,2013-02-14 14:21:00,
2013-02-14 07:31:00,18.0,12.0,-100.00,ESE,120,3.0,4.0,77,-99.99,,,-99.99,,2013-02-14 14:31:00,
2013-02-14 07:41:00,19.0,13.0,-100.00,SE,145,2.0,4.0,77,-99.99,,,-99.99,,2013-02-14 14:41:00,
2013-02-14 07:52:00,19.0,14.0,-100.00,ESE,115,6.0,7.0,77,-99.99,,,-99.99,,2013-02-14 14:52:00,
2013-02-14 08:01:00,19.0,14.0,-100.00,North,0,12.0,17.0,80,-99.99,,,-99.99,,2013-02-14 15:01:00,
2013-02-14 08:11:00,18.0,14.0,-100.00,North,0,10.0,18.0,81,-99.99,,,-99.99,,2013-02-14 15:11:00,
2013-02-14 08:21:00,18.0,14.0,-100.00,North,350,11.0,17.0,82,-99.99,,,-99.99,,2013-02-14 15:21:00,
2013-02-14 08:31:00,18.0,14.0,-100.00,NNW,340,9.0,14.0,82,-99.99,,,-99.99,,2013-02-14 15:31:00,
2013-02-14 08:41:00,18.0,13.0,-100.00,North,350,9.0,12.0,82,-99.99,,,-99.99,,2013-02-14 15:41:00,
2013-02-14 08:51:00,18.0,13.0,-100.00,North,0,6.0,10.0,82,-99.99,,,-99.99,,2013-02-14 15:51:00,
2013-02-14 09:01:00,18.0,14.0,-100.00,North,355,6.0,9.0,82,-99.99,,,-99.99,,2013-02-14 16:01:00,
2013-02-14 09:11:00,18.0,14.0,-100.00,North,0,6.0,12.0,82,-99.99,,,-99.99,,2013-02-14 16:11:00,
2013-02-14 09:21:00,18.0,14.0,-100.00,NNE,25,7.0,11.0,82,-99.99,,,-99.99,,2013-02-14 16:21:00,
2013-02-14 09:31:00,18.0,14.0,-100.00,NNW,340,8.0,11.0,82,-99.99,,,-99.99,,2013-02-14 16:31:00,
2013-02-14 09:41:00,18.0,14.0,-100.00,NNW,345,10.0,12.0,82,-99.99,,,-99.99,,2013-02-14 16:41:00,
2013-02-14 09:51:00,18.0,13.0,-100.00,North,0,10.0,15.0,82,-99.99,,,-99.99,,2013-02-14 16:51:00,
2013-02-14 10:01:00,18.0,14.0,-100.00,NNW,335,9.0,11.0,82,-99.99,,,-99.99,,2013-02-14 17:01:00,
2013-02-14 10:11:00,19.0,15.0,-100.00,NNW,335,6.0,9.0,81,-99.99,,,-99.99,,2013-02-14 17:11:00,
2013-02-14 10:21:00,21.0,16.0,-100.00,NW,320,6.0,7.0,79,-99.99,,,-99.99,,2013-02-14 17:21:00,
2013-02-14 10:31:00,21.0,14.0,-100.00,NNW,340,6.0,7.0,75,-99.99,,,-99.99,,2013-02-14 17:31:00,
2013-02-14 10:41:00,20.0,13.0,-100.00,NNW,345,6.0,7.0,73,-99.99,,,-99.99,,2013-02-14 17:41:00,
2013-02-14 11:01:00,20.0,12.0,-100.00,NNW,345,7.0,9.0,69,-99.99,,,-99.99,,2013-02-14 18:01:00,
2013-02-14 11:11:00,20.0,13.0,-100.00,NNW,340,6.0,9.0,70,-99.99,,,-99.99,,2013-02-14 18:11:00,
2013-02-14 11:22:00,19.0,13.0,-100.00,NNW,345,6.0,7.0,73,-99.99,,,-99.99,,2013-02-14 18:22:00,
2013-02-14 11:31:00,18.0,12.0,-100.00,North,5,6.0,8.0,76,-99.99,,,-99.99,,2013-02-14 18:31:00,
2013-02-14 11:41:00,19.0,13.0,-100.00,North,0,6.0,7.0,76,-99.99,,,-99.99,,2013-02-14 18:41:00,
2013-02-14 11:51:00,19.0,13.0,-100.00,North,5,4.0,6.0,76,-99.99,,,-99.99,,2013-02-14 18:51:00,
2013-02-14 12:01:00,21.0,13.0,-100.00,North,0,3.0,5.0,70,-99.99,,,-99.99,,2013-02-14 19:01:00,
2013-02-14 12:11:00,24.0,14.0,-100.00,NNW,335,3.0,4.0,66,-99.99,,,-99.99,,2013-02-14 19:11:00,
2013-02-14 12:21:00,24.0,12.0,-100.00,ESE,115,3.0,5.0,59,-99.99,,,-99.99,,2013-02-14 19:21:00,
2013-02-14 12:31:00,25.0,11.0,-100.00,SE,130,4.0,5.0,55,-99.99,,,-99.99,,2013-02-14 19:31:00,
2013-02-14 12:41:00,25.0,10.0,-100.00,SE,135,4.0,6.0,52,-99.99,,,-99.99,,2013-02-14 19:41:00,
2013-02-14 12:51:00,24.0,10.0,-100.00,SE,135,4.0,6.0,53,-99.99,,,-99.99,,2013-02-14 19:51:00,
2013-02-14 13:01:00,25.0,10.0,-100.00,ESE,110,4.0,6.0,53,-99.99,,,-99.99,,2013-02-14 20:01:00,
2013-02-14 13:11:00,29.0,10.0,-100.00,ESE,120,4.0,4.0,45,-99.99,,,-99.99,,2013-02-14 20:11:00,
2013-02-14 13:21:00,26.0,9.0,-100.00,SSE,150,2.0,4.0,46,-99.99,,,-99.99,,2013-02-14 20:21:00,
2013-02-14 13:31:00,26.0,9.0,-100.00,South,170,3.0,4.0,47,-99.99,,,-99.99,,2013-02-14 20:31:00,
2013-02-14 13:41:00,24.0,8.0,-100.00,South,170,4.0,4.0,50,-99.99,,,-99.99,,2013-02-14 20:41:00,
2013-02-14 13:51:00,25.0,9.0,-100.00,South,180,4.0,4.0,51,-99.99,,,-99.99,,2013-02-14 20:51:00,
2013-02-14 14:01:00,23.0,8.0,-100.00,South,190,4.0,6.0,52,-99.99,,,-99.99,,2013-02-14 21:01:00,
2013-02-14 14:11:00,24.0,9.0,-100.00,SSW,210,4.0,6.0,52,-99.99,,,-99.99,,2013-02-14 21:11:00,
2013-02-14 14:21:00,24.0,8.0,-100.00,SSW,210,4.0,4.0,49,-99.99,,,-99.99,,2013-02-14 21:21:00,
2013-02-14 14:31:00,24.0,9.0,-100.00,South,175,4.0,4.0,50,-99.99,,,-99.99,,2013-02-14 21:31:00,
2013-02-14 14:51:00,23.0,8.0,-100.00,SSE,165,6.0,7.0,51,-99.99,,,-99.99,,2013-02-14 21:51:00,
2013-02-14 15:01:00,23.0,8.0,-100.00,SE,145,5.0,6.0,52,-99.99,,,-99.99,,2013-02-14 22:01:00,
2013-02-14 15:11:00,23.0,8.0,-100.00,SSE,155,4.0,7.0,51,-99.99,,,-99.99,,2013-02-14 22:11:00,
2013-02-14 15:21:00,24.0,8.0,-100.00,SSE,150,4.0,6.0,50,-99.99,,,-99.99,,2013-02-14 22:21:00,
2013-02-14 15:31:00,24.0,8.0,-100.00,SE,125,5.0,6.0,50,-99.99,,,-99.99,,2013-02-14 22:31:00,
2013-02-14 15:41:00,24.0,8.0,-100.00,ESE,120,6.0,7.0,50,-99.99,,,-99.99,,2013-02-14 22:41:00,
2013-02-14 15:51:00,24.0,8.0,-100.00,SE,125,6.0,6.0,49,-99.99,,,-99.99,,2013-02-14 22:51:00,
2013-02-14 16:01:00,21.0,6.0,-100.00,ESE,110,7.0,7.0,51,-99.99,,,-99.99,,2013-02-14 23:01:00,
2013-02-14 16:11:00,20.0,6.0,-100.00,East,100,8.0,9.0,53,-99.99,,,-99.99,,2013-02-14 23:11:00,
2013-02-14 16:21:00,20.0,7.0,-100.00,ESE,105,6.0,7.0,56,-99.99,,,-99.99,,2013-02-14 23:21:00,
2013-02-14 16:31:00,20.0,7.0,-100.00,ESE,120,7.0,8.0,56,-99.99,,,-99.99,,2013-02-14 23:31:00,
2013-02-14 16:41:00,19.0,6.0,-100.00,ESE,115,11.0,12.0,58,-99.99,,,-99.99,,2013-02-14 23:41:00,
2013-02-14 16:52:00,18.0,6.0,-100.00,ESE,115,8.0,9.0,58,-99.99,,,-99.99,,2013-02-14 23:52:00,
2013-02-14 17:01:00,16.0,5.0,-100.00,East,100,9.0,9.0,62,-99.99,,,-99.99,,2013-02-15 00:01:00,
2013-02-14 17:11:00,15.0,5.0,-100.00,ESE,105,9.0,9.0,64,-99.99,,,-99.99,,2013-02-15 00:11:00,
2013-02-14 17:21:00,15.0,6.0,-100.00,SE,125,12.0,13.0,66,-99.99,,,-99.99,,2013-02-15 00:21:00,
2013-02-14 17:31:00,15.0,6.0,-100.00,ESE,120,11.0,12.0,68,-99.99,,,-99.99,,2013-02-15 00:31:00,
2013-02-14 17:41:00,14.0,6.0,-100.00,ESE,115,12.0,13.0,69,-99.99,,,-99.99,,2013-02-15 00:41:00,
2013-02-14 17:51:00,11.0,4.0,-100.00,East,100,12.0,13.0,72,-99.99,,,-99.99,,2013-02-15 00:51:00,
2013-02-14 18:01:00,10.0,4.0,-100.00,ESE,115,11.0,12.0,74,-99.99,,,-99.99,,2013-02-15 01:01:00,
2013-02-14 18:11:00,9.0,3.0,-100.00,East,95,11.0,12.0,75,-99.99,,,-99.99,,2013-02-15 01:11:00,
2013-02-14 18:21:00,12.0,6.0,-100.00,East,85,11.0,11.0,77,-99.99,,,-99.99,,2013-02-15 01:21:00,
2013-02-14 18:31:00,11.0,6.0,-100.00,East,85,11.0,12.0,77,-99.99,,,-99.99,,2013-02-15 01:31:00,
2013-02-14 18:41:00,11.0,6.0,-100.00,East,90,10.0,12.0,77,-99.99,,,-99.99,,2013-02-15 01:41:00,
2013-02-14 18:51:00,9.0,4.0,-100.00,East,95,9.0,11.0,77,-99.99,,,-99.99,,2013-02-15 01:51:00,
2013-02-14 19:01:00,9.0,4.0,-100.00,ESE,105,8.0,9.0,78,-99.99,,,-99.99,,2013-02-15 02:01:00,
2013-02-14 19:11:00,9.0,4.0,-100.00,East,90,6.0,9.0,78,-99.99,,,-99.99,,2013-02-15 02:11:00,
2013-02-14 19:21:00,11.0,6.0,-100.00,East,90,7.0,8.0,79,-99.99,,,-99.99,,2013-02-15 02:21:00,
2013-02-14 19:31:00,13.0,8.0,-100.00,East,100,8.0,9.0,79,-99.99,,,-99.99,,2013-02-15 02:31:00,
2013-02-14 19:41:00,13.0,8.0,-100.00,ENE,70,6.0,9.0,79,-99.99,,,-99.99,,2013-02-15 02:41:00,
2013-02-14 19:51:00,12.0,7.0,-100.00,ESE,105,5.0,6.0,79,-99.99,,,-99.99,,2013-02-15 02:51:00,
2013-02-14 20:01:00,12.0,7.0,-100.00,East,100,5.0,6.0,79,-99.99,,,-99.99,,2013-02-15 03:01:00,
2013-02-14 20:21:00,10.0,5.0,-100.00,SSE,150,6.0,7.0,79,-99.99,,,-99.99,,2013-02-15 03:21:00,
2013-02-14 20:31:00,9.0,4.0,-100.00,SSE,155,6.0,7.0,79,-99.99,,,-99.99,,2013-02-15 03:31:00,
2013-02-14 20:41:00,7.0,2.0,-100.00,South,170,6.0,7.0,79,-99.99,,,-99.99,,2013-02-15 03:41:00,
2013-02-14 20:51:00,8.0,3.0,-100.00,SSE,165,6.0,7.0,79,-99.99,,,-99.99,,2013-02-15 03:51:00,
2013-02-14 21:01:00,6.0,1.0,-100.00,South,170,6.0,7.0,78,-99.99,,,-99.99,,2013-02-15 04:01:00,
2013-02-14 21:11:00,6.0,1.0,-100.00,SE,140,4.0,7.0,78,-99.99,,,-99.99,,2013-02-15 04:11:00,
2013-02-14 21:21:00,7.0,2.0,-100.00,SSE,160,7.0,7.0,78,-99.99,,,-99.99,,2013-02-15 04:21:00,
2013-02-14 21:31:00,8.0,2.0,-100.00,SSE,150,6.0,7.0,78,-99.99,,,-99.99,,2013-02-15 04:31:00,
2013-02-14 21:51:00,8.0,3.0,-100.00,SE,145,4.0,6.0,78,-99.99,,,-99.99,,2013-02-15 04:51:00,
2013-02-14 22:01:00,8.0,3.0,-100.00,SE,130,4.0,6.0,78,-99.99,,,-99.99,,2013-02-15 05:01:00,
2013-02-14 22:11:00,7.0,2.0,-100.00,SE,125,3.0,6.0,78,-99.99,,,-99.99,,2013-02-15 05:11:00,
2013-02-14 22:22:00,5.0,-1.0,-100.00,SE,135,6.0,7.0,77,-99.99,,,-99.99,,2013-02-15 05:22:00,
2013-02-14 22:32:00,6.0,0.0,-100.00,ESE,115,7.0,8.0,77,-99.99,,,-99.99,,2013-02-15 05:32:00,
2013-02-14 22:41:00,5.0,-1.0,-100.00,ESE,120,6.0,9.0,77,-99.99,,,-99.99,,2013-02-15 05:41:00,
2013-02-14 22:52:00,4.0,-1.0,-100.00,ESE,115,6.0,8.0,77,-99.99,,,-99.99,,2013-02-15 05:52:00,
2013-02-14 23:01:00,3.0,-2.0,-100.00,East,100,7.0,7.0,77,-99.99,,,-99.99,,2013-02-15 06:01:00,
2013-02-14 23:11:00,4.0,-2.0,-100.00,SE,130,6.0,7.0,77,-99.99,,,-99.99,,2013-02-15 06:11:00,
2013-02-14 23:21:00,4.0,-2.0,-100.00,SE,135,5.0,6.0,77,-99.99,,,-99.99,,2013-02-15 06:21:00,
2013-02-14 23:31:00,4.0,-1.0,-100.00,ESE,110,4.0,6.0,77,-99.99,,,-99.99,,2013-02-15 06:31:00,
2013-02-14 23:41:00,6.0,0.0,-100.00,SE,135,4.0,7.0,77,-99.99,,,-99.99,,2013-02-15 06:41:00,
2013-02-14 23:51:00,9.0,4.0,-100.00,South,170,6.0,9.0,78,-99.99,,,-99.99,,2013-02-15 06:51:00,